Temperature
12 12 12 12 12 12 13 13 12 12 12 12 12 12 11 11 11 11 11 11 11 11 11 11 11 11 10 10 10 11 11 11 10 10 10 10 10 10 10 10 10 10 10
12 12 12 12 12 12 12 12 12 12 12 11 11 11 11 11 11 11 11 11 11 11 11 11 10 10 10 10 10 10 10 10 10 10 10 10 10 10 10 10 10 10 10
12 12 12 12 12 12 12 12 12 12 11 11 11 11 11 10 10 10 11 10 10 10 10 10 10 10 10 10 10 10 10 10 10 10 10 10 9 9 9 9 9 9 9
12 12 12 12 12 12 12 12 12 11 11 11 11 11 11 10 10 10 10 10 10 10 10 10 10 10 10 10 9 9 9 9 9 9 9 9 9 9 9 9 9 9 9
11 11 12 12 12 12 12 11 11 11 11 11 11 10 10 10 10 10 10 10 10 10 10 10 10 10 10 9 9 9 9 9 9 9 9 8 8 8 8 8 8 8 8
11 11 11 11 11 11 11 11 11 11 11 10 10 10 10 10 9 9 9 9 9 9 9 9 9 9 9 9 9 9 9 9 9 8 8 8 8 8 8 7 7 7 7
11 11 11 11 11 11 11 11 11 10 10 10 10 9 9 9 9 9 9 9 9 9 9 9 9 9 9 9 9 9 8 8 8 8 8 8 7 7 7 7 7 7 7
10 10 10 11 11 11 10 10 10 10 10 10 9 9 9 9 8 9 9 9 9 9 8 8 8 8 9 8 8 8 8 8 8 8 8 7 7 7 7 6 6 6 6
10 10 10 10 10 10 10 10 10 10 10 9 9 9 9 8 8 8 8 8 8 8 8 8 8 8 8 8 8 8 8 8 8 8 7 7 7 6 6 6 6 6 6
10 9 10 10 10 10 10 10 9 9 9 9 9 9 9 9 8 8 8 8 8 8 7 7 7 7 7 7 7 7 7 7 7 7 7 6 6 6 6 6 6 5 5
9 9 9 9 9 9 9 9 9 9 9 9 9 9 9 8 8 8 7 7 7 7 7 7 7 7 7 7 7 7 7 7 7 7 6 6 6 6 6 6 5 5 5
9 9 9 9 9 9 9 9 9 8 8 8 8 8 8 8 8 7 7 7 7 7 7 7 6 6 6 6 6 6 6 6 6 6 6 6 6 6 6 5 5 5 5
8 8 8 8 8 8 8 8 8 8 8 8 8 8 8 8 7 7 7 6 6 6 6 6 6 6 6 6 6 6 5 5 5 5 5 5 5 5 5 5 5 5 4
8 8 8 8 8 8 8 8 8 8 8 8 8 8 8 7 7 7 7 6 6 6 6 6 6 5 5 5 5 5 5 5 5 5 5 5 5 5 5 4 4 4 4
8 8 8 8 8 8 7 7 8 8 7 7 7 7 7 7 7 7 6 6 6 5 5 5 5 5 5 5 5 4 4 5 4 4 4 4 4 4 4 4 4 4 4
7 7 7 7 7 7 7 7 7 7 7 7 7 7 7 6 6 6 6 6 5 5 4 4 4 4 4 4 4 4 4 4 4 4 4 4 4 4 4 3 3 3 3
7 7 7 7 7 7 7 7 7 6 6 6 6 6 6 6 6 6 5 5 5 4 4 4 4 4 4 4 4 4 4 3 3 3 3 3 3 3 3 3 3 3 3
7 7 7 7 7 7 6 6 6 6 6 6 6 6 6 5 5 5 5 5 4 4 4 4 4 3 3 3 3 3 3 3 3 3 3 3 2 2 2 2 2 2 2
7 7 7 6 6 6 6 6 6 6 6 6 6 5 5 5 5 5 4 4 4 4 3 3 3 3 3 3 3 3 3 3 3 2 2 2 2 2 2 2 2 2 2
6 6 6 6 6 6 6 5 5 5 5 5 5 5 5 5 4 4 4 4 4 3 3 3 3 3 2 2 2 2 2 2 2 2 2 2 1 1 1 1 1 1 1
6 6 6 6 6 5 5 5 5 5 5 5 5 4 4 4 4 4 4 3 3 3 3 2 2 2 2 2 2 1 1 1 1 1 1 1 1 1 1 0 0 0 0
5 5 5 5 5 5 5 5 5 4 4 4 4 4 4 4 3 3 3 3 3 2 2 2 2 2 2 1 1 1 0 0 0 1 0 1 0 0 0 -0 -0 -0 -0
5 5 5 5 5 4 4 4 4 4 4 4 4 4 3 3 3 3 3 2 2 2 2 1 1 1 1 1 0 0 -0 -0 -0 -0 -1 -0 -0 -0 -0 -1 -1 -1 -1
4 4 4 4 4 4 4 4 4 3 3 3 3 3 3 3 3 2 2 2 2 2 1 1 1 1 0 0 -0 -1 -1 -1 -1 -1 -1 -1 -1 -1 -1 -1 -1 -1 -1
4 4 3 3 3 4 3 3 3 3 3 3 3 3 3 2 2 2 2 2 2 1 1 1 0 0 -0 -0 -1 -1 -1 -2 -2 -1 -2 -2 -2 -2 -1 -1 -1 -2 -2
3 3 3 3 3 3 3 3 3 3 2 3 2 2 2 2 2 2 1 1 1 1 1 0 0 -0 -0 -1 -1 -1 -2 -2 -3 -3 -3 -3 -3 -3 -3 -2 -2 -2 -3
Wind_Speed
4 3 4 5 5 6 4 3 3 4 4 5 5 6 5 8 10 10 10 10 10 9 9 8 8 9 8 8 8 8 7 8 8 8 8 9 9 9 9 10 10 10 10
4 3 4 4 4 5 4 3 4 4 4 4 4 5 6 8 10 10 10 9 10 10 9 8 9 9 9 8 8 8 8 7 7 8 8 8 9 9 9 9 10 10 10
5 4 4 3 4 5 4 5 5 5 4 4 4 5 6 7 8 9 9 9 9 10 9 9 9 9 9 8 8 8 8 7 7 7 8 8 8 9 9 9 9 10 11
6 5 4 3 5 5 5 4 4 4 4 4 4 3 4 6 7 8 9 8 9 9 10 10 9 8 8 7 7 7 8 7 7 7 7 7 8 8 8 8 8 9 9
6 5 4 4 6 4 3 3 4 4 4 4 4 4 4 4 4 7 8 9 8 9 9 9 9 8 7 7 7 7 7 7 6 6 6 6 6 6 6 7 7 8 8
6 5 4 5 5 4 3 4 5 4 4 4 4 4 3 3 4 4 5 7 7 7 7 7 7 6 7 7 7 6 6 7 6 6 6 6 5 5 5 5 6 6 7
5 4 3 4 4 4 4 5 5 6 4 3 3 2 3 3 3 3 4 4 5 6 5 5 5 5 5 5 6 6 5 6 6 5 5 5 5 5 5 5 5 5 6
5 4 3 3 3 3 4 5 5 3 2 2 2 3 2 0 1 1 2 3 3 4 3 3 4 4 4 5 5 5 5 5 5 6 5 5 5 5 6 6 6 6 6
5 4 3 3 3 3 4 4 4 4 3 2 2 2 3 2 1 0 2 2 2 2 2 3 3 3 3 4 4 3 4 4 5 5 6 6 6 6 6 6 6 6 6
5 4 4 4 3 3 4 3 3 3 4 2 1 1 2 2 3 1 1 1 2 2 2 2 3 3 3 3 3 2 2 4 4 5 6 6 7 7 7 8 8 7 7
4 4 4 4 3 3 3 3 3 3 2 2 2 1 1 1 1 2 2 1 1 2 2 2 2 3 2 2 2 0 2 3 4 5 6 7 7 8 8 9 9 9 8
3 3 4 4 3 3 3 3 3 3 2 2 2 1 2 2 1 2 2 2 2 2 1 2 2 3 3 2 1 2 3 4 5 6 7 7 7 8 9 9 10 9 9
3 3 3 3 3 3 3 3 3 3 3 3 2 1 1 1 1 1 2 1 1 1 1 1 2 4 3 2 1 3 4 5 6 7 8 8 8 9 10 10 11 10 10
3 3 3 3 4 4 3 3 2 2 2 3 2 2 1 1 1 1 2 2 0 1 1 2 1 3 3 2 3 4 5 7 8 9 9 9 9 10 10 11 11 11 11
4 4 4 3 4 4 3 3 3 3 3 3 3 3 2 1 1 1 1 2 3 2 3 2 1 1 2 2 4 5 6 8 9 10 10 10 11 11 11 12 12 12 12
4 5 4 4 4 4 4 3 3 3 4 3 3 3 2 1 2 1 1 1 2 2 3 2 1 1 1 2 5 5 7 9 10 11 11 12 12 12 13 13 13 12 12
5 5 5 5 4 4 4 4 3 4 4 3 3 4 3 3 2 2 1 1 1 2 3 3 1 1 1 2 3 6 8 8 9 11 12 13 13 14 14 14 14 13 13
5 5 5 5 5 5 5 5 5 4 5 5 5 4 4 3 3 2 2 2 2 2 3 4 3 2 2 2 3 4 6 8 8 10 12 13 13 14 15 15 14 14 13
4 5 5 5 5 5 5 5 5 5 5 5 5 5 5 5 5 3 3 3 3 2 2 3 3 2 2 2 3 4 4 5 8 10 11 12 13 14 15 15 14 14 13
5 5 5 5 5 5 5 5 5 5 5 5 5 5 5 6 6 5 5 4 4 3 3 3 3 3 3 3 2 3 4 4 5 7 10 11 12 13 14 14 14 13 13
4 4 4 5 5 5 5 6 5 5 5 5 5 5 5 6 7 6 5 5 4 4 3 3 4 3 3 3 3 3 4 4 4 3 3 6 8 8 10 12 13 13 13
3 3 4 4 4 4 6 8 7 5 5 5 5 5 5 6 7 8 8 7 7 6 5 5 4 5 5 4 3 3 3 3 4 3 2 5 4 5 7 9 12 13 13
3 3 4 4 4 5 7 8 8 5 5 5 5 5 4 5 6 5 6 7 7 9 8 6 6 7 5 5 3 3 3 4 5 4 3 6 4 6 7 11 13 13 13
3 4 4 4 4 4 7 8 9 6 5 5 6 6 6 5 6 6 5 5 5 6 7 6 6 6 5 4 4 4 5 5 5 4 3 5 5 5 6 9 12 12 12
3 3 3 4 4 5 7 9 8 5 5 6 6 6 6 6 8 9 6 6 6 6 8 10 9 8 8 7 5 2 2 3 6 4 2 3 4 5 5 5 9 10 11
3 3 4 4 5 5 7 9 9 4 5 5 4 5 8 8 9 9 6 6 7 6 4 4 5 6 6 7 8 5 4 4 4 4 2 2 3 3 4 4 3 6 8
Wind_Direction
132 126 121 128 124 126 137 141 128 125 119 111 103 97 90 93 97 95 87 91 96 98 93 87 87 84 83 78 71 66 61 61 56 52 53 50 49 48 45 45 43 41 38
123 126 116 113 108 119 132 124 108 102 93 93 91 90 86 92 98 102 98 93 94 96 92 86 82 80 79 76 71 67 63 59 55 52 53 53 49 47 47 48 46 43 39
119 126 124 119 114 117 109 97 92 92 93 91 90 81 77 86 95 100 102 101 97 90 89 87 81 75 72 70 68 65 59 56 55 54 53 49 47 47 48 49 47 44 39
116 116 121 121 119 115 103 101 102 96 92 91 87 77 73 74 79 90 91 92 98 94 87 84 78 74 69 64 62 60 55 53 52 50 49 46 47 46 44 44 43 39 33
112 114 114 115 117 111 104 112 102 108 101 92 94 85 75 76 79 88 89 82 84 97 94 86 79 74 68 63 56 56 52 47 43 42 40 42 43 38 35 37 37 33 27
102 108 112 109 112 115 112 112 107 100 106 107 98 86 81 81 81 83 91 94 90 91 97 97 88 80 75 67 59 55 47 40 38 39 33 30 27 21 15 16 22 23 17
97 107 112 112 119 130 130 123 116 111 106 105 94 88 70 75 92 98 98 103 100 97 92 98 98 92 85 74 62 53 40 30 24 21 15 8 5 4 3 360 3 5 4
91 107 116 119 116 126 128 124 120 120 125 121 124 130 122 37 342 125 116 117 119 116 111 106 101 96 93 89 71 53 35 21 11 7 2 359 353 350 350 347 347 350 350
86 90 101 113 119 125 136 138 134 129 146 154 109 128 146 177 178 203 163 143 142 130 137 130 113 100 102 100 89 57 29 13 359 350 347 344 341 337 336 337 336 338 337
94 89 90 93 109 116 126 137 127 128 136 152 125 80 103 125 139 154 254 199 161 157 170 151 140 126 113 111 111 77 11 351 340 336 332 330 331 329 326 329 326 324 324
105 103 99 93 99 113 122 128 125 123 128 144 146 139 93 69 104 144 192 227 242 217 180 153 154 157 148 143 138 127 321 324 325 325 322 321 323 324 322 322 319 317 316
113 119 120 115 114 111 120 136 142 138 137 140 143 140 145 144 164 151 179 199 220 236 202 173 165 175 178 189 211 273 288 300 309 312 312 314 319 320 319 318 315 313 311
145 148 132 133 129 124 126 130 137 147 148 146 152 154 135 118 120 120 130 174 216 240 205 211 187 178 183 184 214 293 283 287 292 298 301 304 309 312 312 310 309 307 307
155 150 146 144 141 140 143 137 133 147 145 146 148 137 121 105 92 109 137 140 199 274 231 226 204 177 182 197 242 268 281 290 290 291 293 297 302 303 304 303 303 303 302
152 153 156 155 151 153 157 159 160 161 151 151 155 149 142 137 118 106 108 136 159 220 256 231 214 197 187 229 253 257 271 282 290 290 287 290 293 294 295 295 296 297 298
157 158 162 165 167 167 166 168 167 163 155 155 156 153 157 152 141 133 144 149 152 181 240 247 222 227 223 254 264 269 274 281 284 287 286 287 287 289 290 291 291 292 293
163 167 172 172 173 172 171 171 174 169 167 167 168 169 177 166 159 169 169 173 190 181 234 273 269 242 233 262 284 279 277 276 278 284 288 290 289 288 287 286 287 288 290
170 171 173 174 180 179 178 180 184 181 183 182 184 180 187 177 182 184 179 195 212 212 212 257 277 263 250 256 277 285 282 278 278 285 287 290 290 289 287 285 283 284 285
174 174 174 181 187 185 186 189 188 190 194 194 191 192 194 186 199 197 194 202 211 219 213 236 266 268 270 273 283 288 286 286 288 287 288 290 291 292 289 285 284 283 283
180 182 185 188 189 188 190 191 192 192 196 201 199 198 199 198 202 199 204 209 206 210 215 228 252 264 267 270 265 279 288 283 285 285 285 290 292 294 291 288 286 283 282
186 185 187 190 191 192 195 190 192 195 198 205 207 207 211 208 205 204 207 205 201 208 218 229 245 260 262 272 264 259 273 287 286 274 287 290 287 283 284 287 286 282 281
184 186 197 197 199 209 205 198 193 197 202 206 213 216 216 213 217 222 224 219 210 210 215 223 238 244 253 253 256 268 277 298 293 291 301 293 285 280 278 277 285 287 283
194 199 204 202 210 216 211 209 207 202 208 212 213 214 219 217 216 216 229 234 235 237 230 221 230 241 245 241 240 260 262 265 267 274 294 286 278 276 279 283 287 287 286
208 212 209 209 215 226 222 219 214 212 218 220 217 214 217 218 213 208 213 223 234 241 240 235 230 236 239 229 223 238 252 269 275 270 252 272 281 279 287 281 281 280 288
220 216 212 216 220 230 225 223 215 209 221 229 226 218 215 218 223 217 213 221 237 248 251 245 245 248 251 257 255 253 265 279 284 278 248 253 283 295 288 277 272 278 288
224 220 221 219 219 226 226 223 214 208 220 230 230 225 223 224 229 222 216 216 232 242 239 248 249 255 253 254 254 235 223 247 272 278 249 253 284 309 302 284 277 285 289
Height
1511 1514 1516 1518 1520 1523 1525 1527 1528 1530 1532 1533 1534 1536 1537 1538 1538 1539 1540 1541 1542 1542 1543 1543 1543 1543 1543 1543 1543 1543 1543 1542 1542 1542 1541 1541 1540 1540 1539 1539 1538 1538 1537
1510 1513 1514 1517 1519 1521 1523 1525 1527 1529 1530 1532 1534 1535 1536 1537 1538 1538 1539 1540 1541 1541 1542 1542 1542 1543 1542 1542 1542 1542 1541 1541 1541 1541 1540 1540 1540 1539 1538 1538 1537 1536 1536
1508 1511 1513 1515 1518 1520 1522 1524 1526 1527 1529 1531 1532 1534 1535 1536 1537 1537 1538 1538 1539 1540 1541 1541 1541 1541 1541 1541 1541 1541 1540 1540 1540 1539 1539 1539 1538 1538 1538 1537 1536 1535 1535
1507 1510 1512 1514 1516 1518 1520 1522 1524 1526 1527 1529 1531 1532 1534 1535 1536 1536 1537 1537 1538 1538 1539 1540 1540 1540 1540 1540 1540 1539 1539 1539 1539 1538 1538 1538 1537 1537 1536 1536 1535 1534 1533
1505 1508 1510 1512 1515 1517 1519 1521 1523 1524 1526 1527 1529 1531 1532 1534 1535 1535 1535 1536 1536 1537 1538 1538 1539 1539 1539 1539 1538 1538 1538 1537 1537 1537 1537 1536 1536 1535 1535 1534 1533 1532 1531
1504 1506 1509 1511 1513 1516 1518 1519 1521 1523 1525 1526 1527 1529 1531 1532 1533 1533 1534 1535 1535 1535 1536 1537 1537 1537 1537 1537 1537 1537 1536 1536 1535 1535 1535 1534 1534 1533 1533 1532 1532 1530 1529
1503 1505 1507 1509 1512 1514 1516 1518 1520 1521 1523 1525 1526 1528 1529 1531 1531 1532 1533 1533 1534 1534 1535 1535 1536 1536 1536 1536 1536 1535 1535 1534 1534 1533 1533 1532 1532 1531 1531 1530 1529 1528 1527
1501 1504 1506 1508 1510 1512 1514 1516 1518 1520 1521 1523 1525 1525 1527 1530 1530 1531 1531 1532 1532 1533 1533 1534 1534 1534 1534 1534 1534 1533 1533 1532 1532 1531 1530 1530 1529 1529 1528 1528 1527 1526 1525
1500 1503 1505 1506 1508 1510 1512 1514 1516 1518 1519 1521 1523 1524 1525 1526 1528 1529 1529 1530 1530 1531 1531 1532 1531 1532 1532 1532 1532 1531 1531 1530 1529 1528 1528 1528 1527 1526 1526 1525 1524 1523 1522
1498 1501 1503 1505 1507 1508 1510 1512 1514 1516 1517 1519 1521 1522 1524 1524 1526 1526 1528 1528 1528 1529 1529 1529 1529 1529 1529 1529 1529 1529 1528 1528 1527 1526 1525 1525 1524 1523 1523 1522 1521 1520 1519
1497 1499 1501 1503 1505 1506 1508 1510 1512 1514 1515 1517 1518 1520 1521 1522 1523 1524 1524 1525 1526 1526 1527 1527 1527 1527 1527 1527 1526 1526 1525 1525 1524 1523 1522 1522 1521 1520 1519 1518 1517 1516 1515
1496 1498 1500 1502 1503 1504 1506 1508 1510 1511 1513 1515 1516 1517 1518 1519 1520 1521 1521 1522 1523 1524 1524 1524 1524 1524 1524 1524 1524 1523 1523 1522 1521 1520 1519 1518 1517 1516 1515 1514 1513 1512 1511
1494 1496 1498 1500 1501 1503 1504 1506 1507 1509 1510 1512 1513 1515 1516 1517 1518 1518 1519 1519 1520 1520 1520 1521 1521 1521 1521 1521 1521 1520 1519 1519 1518 1517 1516 1515 1513 1512 1511 1510 1509 1508 1507
1493 1495 1496 1498 1499 1501 1503 1504 1505 1507 1508 1509 1511 1512 1513 1514 1515 1515 1516 1517 1516 1517 1517 1518 1518 1518 1518 1517 1517 1516 1515 1514 1514 1513 1512 1511 1509 1508 1507 1506 1505 1504 1502
1491 1493 1494 1496 1497 1499 1500 1502 1503 1504 1505 1506 1507 1509 1510 1511 1512 1512 1513 1514 1515 1514 1514 1514 1514 1514 1514 1514 1513 1512 1511 1510 1509 1508 1508 1507 1505 1504 1503 1501 1500 1499 1498
1489 1490 1492 1493 1495 1496 1498 1499 1500 1501 1502 1503 1504 1505 1506 1507 1508 1509 1510 1511 1511 1511 1511 1510 1511 1511 1510 1510 1509 1508 1507 1506 1505 1504 1503 1502 1501 1499 1498 1497 1495 1494 1493
1486 1487 1489 1490 1492 1493 1495 1496 1497 1498 1499 1500 1501 1502 1503 1504 1505 1506 1507 1507 1507 1508 1507 1506 1507 1506 1506 1505 1504 1504 1502 1501 1500 1499 1498 1497 1496 1494 1493 1492 1490 1489 1487
1483 1485 1486 1487 1489 1490 1491 1492 1494 1495 1496 1497 1498 1499 1500 1501 1501 1502 1503 1503 1504 1504 1504 1502 1502 1502 1501 1500 1500 1499 1498 1496 1495 1494 1493 1492 1491 1489 1488 1487 1485 1484 1482
1480 1482 1483 1484 1485 1487 1488 1489 1490 1492 1493 1493 1494 1495 1496 1497 1497 1498 1499 1499 1499 1499 1499 1498 1498 1497 1497 1496 1495 1494 1493 1492 1491 1489 1488 1487 1485 1484 1482 1481 1480 1478 1477
1477 1478 1479 1481 1482 1483 1484 1486 1487 1487 1489 1489 1490 1491 1492 1493 1493 1494 1494 1495 1495 1495 1494 1494 1493 1493 1492 1491 1490 1489 1488 1487 1486 1484 1483 1481 1480 1479 1477 1475 1474 1472 1471
1474 1475 1476 1477 1478 1479 1480 1481 1482 1483 1484 1485 1486 1487 1488 1489 1489 1490 1490 1490 1490 1490 1489 1489 1489 1488 1487 1486 1486 1484 1483 1481 1480 1479 1477 1476 1475 1473 1471 1470 1468 1467 1465
1470 1471 1472 1473 1474 1475 1476 1477 1478 1479 1480 1480 1481 1482 1483 1484 1485 1486 1486 1486 1486 1485 1485 1484 1484 1483 1482 1482 1481 1480 1478 1476 1474 1474 1472 1470 1469 1467 1466 1464 1463 1461 1460
1466 1467 1468 1469 1469 1471 1472 1473 1473 1474 1475 1476 1477 1477 1478 1479 1480 1480 1480 1481 1481 1481 1481 1480 1479 1478 1478 1477 1476 1475 1474 1472 1470 1469 1467 1464 1464 1461 1460 1459 1457 1456 1454
1462 1463 1463 1464 1465 1466 1467 1468 1469 1469 1470 1471 1471 1472 1473 1473 1474 1475 1475 1475 1475 1475 1475 1475 1474 1474 1473 1473 1472 1471 1469 1467 1465 1464 1463 1459 1457 1456 1455 1453 1452 1451 1449
1458 1458 1459 1459 1460 1461 1462 1463 1464 1464 1465 1465 1466 1467 1468 1468 1469 1469 1470 1469 1469 1469 1470 1469 1469 1468 1468 1468 1467 1466 1464 1462 1459 1458 1458 1455 1452 1450 1448 1447 1447 1445 1444
1453 1454 1454 1455 1455 1456 1457 1458 1459 1459 1459 1460 1461 1462 1462 1463 1463 1463 1463 1463 1463 1463 1464 1463 1463 1462 1462 1462 1461 1460 1459 1457 1455 1453 1452 1451 1448 1446 1443 1441 1441 1440 1438